Home > Weather > Whistler > Past weeks

Flag for Canada Past Weather in Whistler, British Columbia, Canada — Yesterday and Last 2 Weeks

Now
68 °F

Mild.


Feels Like: 68 °F
Forecast: 54 / 78 °F
Wind: 10 mph from Southeast

Location: Squamish Airport

Current Time: Jul 30, 2016 at 11:50:12 AM

Latest Report: Jul 30, 2016 at 11:00 AM


Visibility: N/A

Pressure: 29.84 "Hg (27.58 "Hg at 674m altitude)

Humidity: 64%

Dew Point: 55 °F

Location of WhistlerLocation

Past Weather in Whistler — Graph

°F

Whistler Temperature Yesterday

Maximum temperature yesterday: 85 °F (at 4:00 PM)
Minimum temperature yesterday: 60 °F (at 4:00 AM)
Average temperature yesterday: 72 °F

High & Low Weather Summary for the Past Weeks

 TemperatureHumidityPressure
High85 °F (Jul 29, 4:00 PM)100% (Jul 17, 7:00 AM)30.21 "Hg (Jul 17, 7:00 AM)
Low52 °F (Jul 21, 6:00 AM)30% (Jul 21, 6:00 PM)29.80 "Hg (Jul 29, 8:00 PM)
Average67 °F74%30.03 "Hg
* Reported Jul 15 10:00 AM — Jul 30 10:00 AM, Whistler, Weather by CustomWeather, © 2016

Note: Actual official high and low records may vary slightly from our data, if they occured in-between our weather recording intervals... More about our weather records

Advertising

Whistler Weather History for the Previous 24 Hours

Scroll right to see more
 ConditionsComfort  
Time TempWeatherWind HumidityBarometerVisibility
10:00 AM
Sat, Jul 30
68 °FMild.7 mph63%29.83 "HgN/A
9:00 AM67 °FMild.5 mph67%29.83 "HgN/A
8:00 AM64 °FMild.3 mph75%29.83 "HgN/A
7:00 AM60 °FCool.No wind87%29.83 "HgN/A
6:00 AM59 °FCool.1 mph90%29.82 "HgN/A
5:00 AM59 °FCool.No wind88%29.82 "HgN/A
4:00 AM60 °FCool.1 mph88%29.81 "HgN/A
3:00 AM61 °FCool.1 mph86%29.82 "HgN/A
2:00 AM62 °FCool.1 mph84%29.82 "HgN/A
1:00 AM63 °FMild.No wind83%29.82 "HgN/A
12:00 AM65 °FMild.1 mph80%29.81 "HgN/A
11:00 PM
Fri, Jul 29
66 °FMild.No wind75%29.82 "HgN/A
10:00 PM68 °FMild.1 mph71%29.81 "HgN/A
9:00 PM72 °FMild.1 mph60%29.81 "HgN/A
8:00 PM76 °FMild.6 mph50%29.80 "HgN/A
7:00 PM82 °FWarm.6 mph41%29.81 "HgN/A
6:00 PM85 °FPleasantly warm.5 mph39%29.81 "HgN/A
5:00 PM84 °FPleasantly warm.8 mph40%29.83 "HgN/A
4:00 PM85 °FWarm.8 mph41%29.85 "HgN/A
3:00 PM83 °FWarm.7 mph45%29.87 "HgN/A
2:00 PM82 °FWarm.9 mph49%29.89 "HgN/A
1:00 PM80 °FWarm.8 mph51%29.90 "HgN/A
12:00 PM78 °FWarm.9 mph55%29.93 "HgN/A
11:00 AM77 °FMild.8 mph57%29.94 "HgN/A
Weather by CustomWeather, © 2016

See weather overviewHow to use our weather pages